sat.trackr.live / text

‹ back to catalog

QIANFAN-46

NORAD 62247 · 2024-232L

PAYLOAD ACTIVE UNKNOWN

§ Identity

Operator
Country
PRC
Launch date
2024-12-05
Launch site
TAISC
Launch vehicle
Mass (kg)
RCS (m²)

External: N2YO · Heavens-Above · Gunter

§ Orbital elements

Epoch: 2026-09-22T20:13:34.408704Z

Period
106.59 min
Inclination
89.0167°
Eccentricity
0.0016378
Mean motion
13.51030305 rev/d
Perigee alt
1,056.3 km
Apogee alt
1,080.7 km
Semi-major
7,446.6 km
B*
1.5000e-4
RAAN
12.7856°
Arg perigee
98.9847°
Mean anomaly
261.3159°
Rev number
13,757

§ Raw data

QIANFAN-461 62247U 24232L   26265.84275936  .00000109  00000+0  15000-3 0  99972 62247  89.0167  12.7856 0016378  98.9847 261.3159 13.51030305137574

JSON: /api/v1/satellites/62247 · /tle

For live sub-satellite position, see the globe view (requires WebGL).

§ Visibility from observer

Set your observer location to see the next 7 days of passes ≥ 10°. The values pass through the URL so the page stays shareable.

No JS? Fill the form by hand. The geolocation button needs JavaScript.